Weather History for Bentonville, AR

Change the Weather History Date:

Thursday, December 15, 2011

  Actual Average Record
Temperature  
Mean Temperature 48 °F -  
Max Temperature 59 °F 47 °F 68 °F (1948)
Min Temperature 37 °F 25 °F -4 °F (1985)
Degree Days  
Heating Degree Days 17    
Moisture  
Dew Point 37 °F    
Average Humidity 74    
Maximum Humidity 94    
Minimum Humidity 57    
Precipitation  
Precipitation 0.00 in - - ()
Sea Level Pressure  
Sea Level Pressure 30.15 in    
Wind  
Wind Speed 7 mph (NNW)    
Max Wind Speed 15 mph    
Max Gust Speed 17 mph    
Visibility 10 miles    
Events      
Averages and records for this station are not official NWS values.
T = Trace of Precipitation, MM = Missing Value Source: NWS Daily Summary

Daily Weather History Graph

Daily Weather History Graph

Search for Another Location

Airport:

Trip Planner

Search our weather history database for the weather conditions in past years. The results will help you decide how hot, cold, wet, or windy it might be!

Date:

Astronomy

Dec. 15, 2011 Rise Set
Actual Time 7:20 AM CST 5:03 PM CST
Civil Twilight 6:52 AM CST 5:31 PM CST
Nautical Twilight 6:19 AM CST 6:03 PM CST
Astronomical Twilight 5:48 AM CST 6:35 PM CST
Moon 10:22 PM CST (12/15) 10:44 AM CST (12/15)
Length of Visible Light 10h 39m
Length of Day
9h 42m
Waning Gibbous, 74% of the Moon is Illuminated
Dec 15
Waning Gibbous
Dec 17
Last Quarter
Dec 24
New
Jan 1
First Quarter
Jan 9
Full

Hourly Weather History & Observations

Time (CST) Temp. Windchill Dew Point Humidity Pressure Visibility Wind Dir Wind Speed Gust Speed Precip Events Conditions
12:15 AM 59.0 °F - 55.4 °F 88% 29.92 in 10.0 mi SW 9.2 mph - N/A   Overcast
12:35 AM 57.2 °F - 55.4 °F 94% 29.92 in 10.0 mi SW 9.2 mph - N/A   Overcast
12:55 AM 57.2 °F - 55.4 °F 94% 29.91 in 9.0 mi WSW 8.1 mph - N/A   Partly Cloudy
1:15 AM 57.2 °F - 53.6 °F 88% 29.92 in 8.0 mi WSW 8.1 mph - N/A   Clear
1:35 AM 55.4 °F - 53.6 °F 94% 29.92 in 10.0 mi WSW 8.1 mph - N/A   Clear
2:15 AM 53.6 °F - 51.8 °F 94% 29.93 in 10.0 mi SW 6.9 mph - N/A   Clear
3:15 AM 53.6 °F - 48.2 °F 82% 29.96 in 10.0 mi West 6.9 mph - N/A   Clear
3:35 AM 53.6 °F - 48.2 °F 82% 29.96 in 10.0 mi WSW 6.9 mph - N/A   Clear
3:55 AM 51.8 °F - 46.4 °F 82% 29.96 in 10.0 mi West 8.1 mph - N/A   Clear
4:15 AM 51.8 °F - 46.4 °F 82% 29.97 in 10.0 mi WNW 10.4 mph - N/A   Mostly Cloudy
4:35 AM 50.0 °F - 44.6 °F 82% 29.99 in 10.0 mi NW 15.0 mph - N/A   Mostly Cloudy
4:55 AM 48.2 °F - 44.6 °F 87% 30.00 in 10.0 mi NW 9.2 mph 17.3 mph N/A   Mostly Cloudy
5:15 AM 48.2 °F - 44.6 °F 87% 30.01 in 10.0 mi NW 6.9 mph - N/A   Scattered Clouds
5:35 AM 46.4 °F 42.9 °F 42.8 °F 87% 30.02 in 10.0 mi NW 6.9 mph - N/A   Mostly Cloudy
6:35 AM 46.4 °F 42.9 °F 41.0 °F 81% 30.06 in 10.0 mi NW 6.9 mph - N/A   Overcast
6:55 AM 44.6 °F 40.2 °F 41.0 °F 87% 30.08 in 10.0 mi WNW 8.1 mph - N/A   Overcast
7:35 AM 42.8 °F 41.1 °F 39.2 °F 87% 30.09 in 8.0 mi NW 3.5 mph - N/A   Overcast
7:55 AM 42.8 °F 41.1 °F 39.2 °F 87% 30.11 in 8.0 mi NW 3.5 mph - N/A   Overcast
8:15 AM 42.8 °F 40.1 °F 39.2 °F 87% 30.11 in 8.0 mi NNW 4.6 mph - N/A   Overcast
8:35 AM 42.8 °F 38.6 °F 39.2 °F 87% 30.12 in 8.0 mi North 6.9 mph - N/A   Overcast
8:55 AM 42.8 °F 38.6 °F 39.2 °F 87% 30.15 in 8.0 mi NNW 6.9 mph - N/A   Overcast
9:35 AM 44.6 °F 41.4 °F 37.4 °F 76% 30.20 in 10.0 mi NW 5.8 mph - N/A   Overcast
9:55 AM 44.6 °F 41.4 °F 37.4 °F 76% 30.21 in 10.0 mi North 5.8 mph - N/A   Mostly Cloudy
10:15 AM 42.8 °F 37.5 °F 37.4 °F 81% 30.18 in 10.0 mi North 9.2 mph - N/A   Partly Cloudy
10:35 AM 44.6 °F 40.7 °F 37.4 °F 76% 30.20 in 10.0 mi North 6.9 mph - N/A   Mostly Cloudy
11:15 AM 42.8 °F 38.0 °F 37.4 °F 81% 30.21 in 10.0 mi NNW 8.1 mph - N/A   Scattered Clouds
11:35 AM 42.8 °F 40.1 °F 37.4 °F 81% 30.22 in 10.0 mi North 4.6 mph - N/A   Clear
11:55 AM 44.6 °F 41.4 °F 37.4 °F 76% 30.21 in 10.0 mi NNW 5.8 mph - N/A   Clear
12:35 PM 44.6 °F 42.2 °F 35.6 °F 71% 30.20 in 10.0 mi NNW 4.6 mph - N/A   Clear
12:55 PM 44.6 °F 40.7 °F 35.6 °F 71% 30.18 in 10.0 mi North 6.9 mph - N/A   Clear
1:15 PM 44.6 °F 42.2 °F 33.8 °F 66% 30.19 in 10.0 mi NNW 4.6 mph - N/A   Clear
1:35 PM 44.6 °F 40.7 °F 33.8 °F 66% 30.18 in 10.0 mi NNW 6.9 mph - N/A   Clear
1:55 PM 44.6 °F 40.7 °F 33.8 °F 66% 30.18 in 10.0 mi North 6.9 mph - N/A   Clear
2:15 PM 44.6 °F 42.2 °F 32.0 °F 61% 30.20 in 10.0 mi NNW 4.6 mph - N/A   Clear
2:35 PM 44.6 °F 42.2 °F 32.0 °F 61% 30.20 in 10.0 mi NNW 4.6 mph - N/A   Clear
2:55 PM 44.6 °F 40.7 °F 32.0 °F 61% 30.18 in 10.0 mi North 6.9 mph - N/A   Clear
3:15 PM 44.6 °F 41.4 °F 32.0 °F 61% 30.19 in 10.0 mi North 5.8 mph - N/A   Clear
3:35 PM 44.6 °F 40.7 °F 30.2 °F 57% 30.18 in 10.0 mi NNW 6.9 mph - N/A   Clear
3:55 PM 44.6 °F 40.7 °F 30.2 °F 57% 30.19 in 10.0 mi NNW 6.9 mph - N/A   Clear
4:15 PM 44.6 °F 43.1 °F 30.2 °F 57% 30.20 in 10.0 mi North 3.5 mph - N/A   Clear
4:35 PM 44.6 °F 40.2 °F 30.2 °F 57% 30.21 in 10.0 mi NNW 8.1 mph - N/A   Clear
4:55 PM 42.8 °F 40.1 °F 30.2 °F 61% 30.23 in 10.0 mi NW 4.6 mph - N/A   Clear
5:15 PM 42.8 °F 39.3 °F 30.2 °F 61% 30.23 in 9.0 mi NNW 5.8 mph - N/A   Clear
5:35 PM 42.8 °F 39.3 °F 30.2 °F 61% 30.23 in 10.0 mi North 5.8 mph - N/A   Clear
5:55 PM 42.8 °F 38.6 °F 30.2 °F 61% 30.23 in 10.0 mi North 6.9 mph - N/A   Clear
6:15 PM 42.8 °F 41.1 °F 30.2 °F 61% 30.25 in 10.0 mi NNW 3.5 mph - N/A   Clear
6:35 PM 42.8 °F - 30.2 °F 61% 30.25 in 10.0 mi Calm Calm - N/A   Clear
6:55 PM 41.0 °F 39.0 °F 30.2 °F 65% 30.26 in 10.0 mi North 3.5 mph - N/A   Clear
7:15 PM 41.0 °F 37.1 °F 32.0 °F 70% 30.25 in 10.0 mi North 5.8 mph - N/A   Clear
7:35 PM 41.0 °F 36.4 °F 30.2 °F 65% 30.25 in 10.0 mi North 6.9 mph - N/A   Clear
7:55 PM 41.0 °F - 30.2 °F 65% 30.27 in 10.0 mi Calm Calm - N/A   Clear
8:15 PM 39.2 °F 34.2 °F 30.2 °F 70% 30.27 in 10.0 mi NNE 6.9 mph - N/A   Clear
8:35 PM 41.0 °F 35.8 °F 30.2 °F 65% 30.27 in 10.0 mi NNE 8.1 mph - N/A   Clear
8:55 PM 39.2 °F 33.6 °F 30.2 °F 70% 30.26 in 10.0 mi North 8.1 mph - N/A   Clear
9:35 PM 39.2 °F 33.0 °F 30.2 °F 70% 30.27 in 10.0 mi North 9.2 mph - N/A   Clear
9:55 PM 39.2 °F 32.0 °F 26.6 °F 61% 30.27 in 10.0 mi NNE 11.5 mph - N/A   Clear
10:15 PM 37.4 °F 30.8 °F 26.6 °F 65% 30.28 in 10.0 mi NNE 9.2 mph - N/A   Clear
10:35 PM 37.4 °F 30.8 °F 26.6 °F 65% 30.27 in 10.0 mi NNE 9.2 mph - N/A   Clear
10:55 PM 37.4 °F 31.4 °F 28.4 °F 70% 30.27 in 10.0 mi NNE 8.1 mph - N/A   Clear
11:15 PM 37.4 °F 30.3 °F 28.4 °F 70% 30.28 in 10.0 mi NE 10.4 mph - N/A   Clear
11:35 PM 37.4 °F 30.8 °F 28.4 °F 70% 30.30 in 10.0 mi NNE 9.2 mph - N/A   Clear
11:55 PM 37.4 °F 29.3 °F 28.4 °F 70% 30.29 in 10.0 mi NE 12.7 mph - N/A   Partly Cloudy